Flag for Australia Weather past 2 weeks in Mosman, New South Wales, Australia

Now
62 °F

Refreshingly cool.


Feels Like: 62 °F
Forecast: 54 / 71 °F
Wind: N/A

Location: Sydney Regional Office

Current Time: Jul 29, 2014 at 9:23:56 PM

Latest Report: Jul 29, 2014 at 8:00 PM


Visibility: N/A

Pressure: 30.00 "Hg

Humidity: 36%

Dew point: 35 °F

Location of MosmanLocation

Historic Weather in Mosman — Graph

°F

Mosman temperature yesterday

Maximum temperature yesterday: 65 °F (at 2:00 PM)
Minimum temperature yesterday: 48 °F (at 3:00 AM)
Average temperature yesterday: 56 °F

Past Weeks' High & Low Weather Summary

 TemperatureHumidityPressure
High73 °F (Jul 29, 3:00 PM)91% (Jul 15, 2:00 AM)30.39 "Hg (Jul 15, 2:00 AM)
Low48 °F (Jul 24, 6:00 AM)27% (Jul 29, 3:00 PM)29.78 "Hg (Jul 17, 3:00 PM)
Average56 °F66%30.13 "Hg
* Reported Jul 14 8:00 PM — Jul 29 8:00 PM, Mosman, Weather by CustomWeather, © 2014

Note: Actual official high and low records may vary slightly from our data, if they occured in-between our weather recording intervals... More about our weather records

Advertising

Mosman weather history for previous 24 hours

 ConditionsComfort  
Time TempWeatherWind HumidityBarometerVisibility
8:00 PM
Jul 29
62 °FRefreshingly cool.N/A36%30.00 "HgN/A
6:00 PM66 °FMild.N/A31%29.98 "HgN/A
5:00 PM69 °FMild.N/A29%29.96 "HgN/A
3:00 PM73 °FMild.N/A27%29.92 "HgN/A
2:00 PM72 °FMild.N/A28%29.94 "HgN/A
12:00 PM66 °FMild.N/A36%30.00 "HgN/A
11:00 AM64 °FMild.N/A40%30.04 "HgN/A
9:00 AM59 °FRefreshingly cool.N/A49%30.06 "HgN/A
8:00 AM57 °FRefreshingly cool.N/A52%30.06 "HgN/A
6:00 AM58 °FRefreshingly cool.N/A50%30.05 "HgN/A
5:00 AM56 °FRefreshingly cool.N/A53%30.05 "HgN/A
3:00 AM56 °FRefreshingly cool.N/A57%30.04 "HgN/A
2:00 AM55 °FCool.N/A60%30.04 "HgN/A
12:00 AM56 °FRefreshingly cool.N/A58%30.07 "HgN/A
11:00 PM
Jul 28
56 °FRefreshingly cool.N/A60%30.09 "HgN/A
9:00 PM57 °FRefreshingly cool.N/A57%30.10 "HgN/A
Weather by CustomWeather, © 2014

See weather overviewHow to use our weather pages